This is the latest recevied weather packets stored in our database for station/object EA7AVH-10. If no packets are shown the sender has not sent any weather packets the latest 10 day(s).
| Time | Temp. | Humidity | Pressure | Rain* | Wind** | Luminosity | Snow |
|---|---|---|---|---|---|---|---|
| 1778020359 | 15.56° C | 42% | 920.1 hPa | - | - | - | - |
| 1778019458 | 15.56° C | 42% | 920.1 hPa | - | - | - | - |
| 1778018557 | 15.56° C | 41% | 920.3 hPa | - | - | - | - |
| 1778017657 | 15.56° C | 41% | 920.4 hPa | - | - | - | - |
| 1778016756 | 15.56° C | 40% | 920.5 hPa | - | - | - | - |
| 1778015855 | 15.56° C | 40% | 920.4 hPa | - | - | - | - |
| 1778014954 | 15.56° C | 39% | 920.6 hPa | - | - | - | - |
| 1778014053 | 16.11° C | 39% | 920.3 hPa | - | - | - | - |
| 1778013153 | 16.11° C | 38% | 920.3 hPa | - | - | - | - |
| 1778012252 | 16.11° C | 38% | 920.1 hPa | - | - | - | - |
| 1778011351 | 16.67° C | 38% | 919.9 hPa | - | - | - | - |
| 1778010450 | 17.22° C | 38% | 919.7 hPa | - | - | - | - |
| 1778009549 | 17.22° C | 39% | 919.5 hPa | - | - | - | - |
| 1778008649 | 17.22° C | 39% | 919.3 hPa | - | - | - | - |
| 1778007748 | 17.78° C | 39% | 919.2 hPa | - | - | - | - |
| 1778006847 | 18.33° C | 39% | 919.1 hPa | - | - | - | - |
| 1778005946 | 18.89° C | 39% | 919.1 hPa | - | - | - | - |
| 1778005045 | 19.44° C | 38% | 919 hPa | - | - | - | - |
| 1778003244 | 20.56° C | 38% | 918.6 hPa | - | - | - | - |
| 1778002343 | 20.56° C | 37% | 918.4 hPa | - | - | - | - |
| 1778001442 | 21.11° C | 37% | 918.2 hPa | - | - | - | - |
| 1777999666 | 22.22° C | 35% | 918.2 hPa | - | - | - | - |
| 1777998761 | 22.78° C | 34% | 918.2 hPa | - | - | - | - |
| 1777997860 | 23.33° C | 33% | 918.2 hPa | - | - | - | - |
| 1777996059 | 23.89° C | 32% | 918.2 hPa | - | - | - | - |
* Rain since midnight (hover to see other rain measurements)
** Current wind speed in m/s (hover to see current wind gust speed)